This is the latest recevied weather packets stored in our database for station/object LU8FCJ-5. If no packets are shown the sender has not sent any weather packets the latest 10 day(s).
| Time | Temp. | Humidity | Pressure | Rain* | Wind** | Luminosity | Snow |
|---|---|---|---|---|---|---|---|
| 1777522334 | 6.67° C | 93% | 1014.5 hPa | 0 mm | - | 411 W/m² | - |
| 1777522024 | 6.67° C | 93% | 1014.5 hPa | 0 mm | - | 411 W/m² | - |
| 1777521714 | 7.22° C | 94% | 1014.4 hPa | 0 mm | - | 411 W/m² | - |
| 1777521404 | 6.67° C | 94% | 1014.5 hPa | 0 mm | - | 557 W/m² | - |
| 1777521094 | 7.22° C | 94% | 1014.3 hPa | 0 mm | - | 557 W/m² | - |
| 1777520784 | 6.67° C | 94% | 1014.4 hPa | 0 mm | - | 557 W/m² | - |
| 1777520474 | 6.11° C | 94% | 1014.6 hPa | 0 mm | - | 557 W/m² | - |
| 1777520163 | 6.11° C | 94% | 1014.4 hPa | 0 mm | - | 557 W/m² | - |
| 1777519853 | 6.11° C | 94% | 1014.5 hPa | 0 mm | - | 557 W/m² | - |
| 1777519543 | 6.67° C | 94% | 1014.4 hPa | 0 mm | - | 631 W/m² | - |
| 1777519234 | 6.67° C | 94% | 1014.4 hPa | 0 mm | - | 631 W/m² | - |
| 1777518926 | 7.22° C | 94% | 1014.3 hPa | 0 mm | - | 631 W/m² | - |
| 1777518612 | 7.22° C | 94% | 1014.1 hPa | 0 mm | - | 631 W/m² | - |
| 1777518302 | 8.33° C | 94% | 1014.4 hPa | 0 mm | - | 631 W/m² | - |
| 1777517993 | 8.33° C | 94% | 1014.4 hPa | 0 mm | - | 631 W/m² | - |
| 1777517682 | 7.78° C | 94% | 1014.3 hPa | 0 mm | - | 630 W/m² | - |
| 1777517372 | 6.67° C | 93% | 1014.3 hPa | 0 mm | - | 630 W/m² | - |
| 1777517063 | 7.22° C | 93% | 1014.4 hPa | 0 mm | - | 630 W/m² | - |
| 1777516752 | 7.78° C | 93% | 1014.7 hPa | 0 mm | - | 630 W/m² | - |
| 1777516443 | 7.78° C | 93% | 1014.6 hPa | 0 mm | - | 630 W/m² | - |
| 1777516132 | 6.67° C | 93% | 1014.7 hPa | 0 mm | - | 630 W/m² | - |
| 1777515821 | 6.67° C | 92% | 1014.8 hPa | 0 mm | - | 630 W/m² | - |
| 1777515510 | 6.11° C | 91% | 1014.9 hPa | 0 mm | - | 630 W/m² | - |
| 1777515204 | 6.67° C | 89% | 1014.7 hPa | 0 mm | - | 630 W/m² | - |
| 1777514891 | 7.78° C | 89% | 1014.8 hPa | 0 mm | - | 630 W/m² | - |
* Rain latest hour (hover to see other rain measurements)
** Current wind speed in m/s (hover to see current wind gust speed)